カタログに戻る

ONEWEB-0291

運用中通信PO
NORAD 49081·PAYLOAD·🇬🇧 United Kingdom

打ち上げ Aug 21, 2021 から Baikonur Cosmodrome

Loading…

次のパス (今後24時間)

TLE

最新Source: CelesTrak SupGP

元期: Sep 14, 2026, 22:38 UTC

1 49081C 21075G   26257.94355741 -.00001673  00000+0 -43141-2 0  2577
2 49081  87.9208 348.0382 0001626 110.6521   1.9049 13.17652865    15

AllMySatでONEWEB-0291をリアルタイム追跡

Download on the App Store